TimeEDT,TemperatureF,Dew PointF,Humidity,Sea Level PressureIn,VisibilityMPH,Wind Direction,Wind SpeedMPH,Gust SpeedMPH,PrecipitationIn,Events,Conditions,WindDirDegrees,DateUTC
12:54 AM,59.0,54.0,83,29.88,9.0,Calm,Calm,-,N/A,,Mostly Cloudy,0,2012-10-06 04:54:00
1:54 AM,55.9,54.0,93,29.85,8.0,Calm,Calm,-,N/A,,Clear,0,2012-10-06 05:54:00
2:54 AM,57.0,53.1,87,29.83,10.0,Calm,Calm,-,N/A,,Partly Cloudy,0,2012-10-06 06:54:00
3:54 AM,55.9,53.1,90,29.81,7.0,NNW,3.5,-,N/A,,Clear,330,2012-10-06 07:54:00
4:54 AM,57.9,53.1,84,29.80,10.0,SSW,4.6,-,N/A,,Overcast,200,2012-10-06 08:54:00
5:39 AM,57.2,53.6,88,29.82,7.0,SW,4.6,-,0.00,Rain,Light Rain,230,2012-10-06 09:39:00
5:54 AM,57.9,54.0,87,29.81,8.0,West,6.9,-,0.01,Rain,Light Rain,280,2012-10-06 09:54:00
6:01 AM,55.4,53.6,94,29.83,6.0,NW,9.2,-,0.00,Rain,Light Rain,310,2012-10-06 10:01:00
7:54 AM,51.1,48.9,92,29.87,10.0,West,5.8,-,0.03,Rain,Light Rain,280,2012-10-06 11:54:00
8:01 AM,51.8,48.2,88,29.87,10.0,WNW,10.4,-,N/A,,Overcast,290,2012-10-06 12:01:00
8:54 AM,50.0,48.0,93,29.90,10.0,West,5.8,-,0.00,,Overcast,260,2012-10-06 12:54:00
9:37 AM,48.2,46.4,93,29.92,10.0,WNW,12.7,-,N/A,,Overcast,290,2012-10-06 13:37:00
9:54 AM,48.9,45.0,86,29.93,10.0,West,8.1,-,N/A,,Overcast,280,2012-10-06 13:54:00
10:54 AM,48.0,44.1,86,29.96,10.0,WNW,10.4,-,N/A,,Overcast,290,2012-10-06 14:54:00
11:49 AM,48.2,42.8,82,29.97,10.0,WNW,6.9,-,N/A,,Overcast,290,2012-10-06 15:49:00
11:54 AM,48.9,43.0,80,29.97,10.0,West,5.8,-,N/A,,Overcast,270,2012-10-06 15:54:00
12:54 PM,50.0,43.0,77,29.98,10.0,NW,8.1,-,0.00,,Overcast,320,2012-10-06 16:54:00
1:28 PM,50.0,39.2,66,29.97,10.0,West,8.1,17.3,N/A,,Overcast,270,2012-10-06 17:28:00
1:54 PM,53.1,39.9,61,29.96,10.0,West,11.5,18.4,N/A,,Mostly Cloudy,270,2012-10-06 17:54:00
2:54 PM,55.9,36.0,47,29.96,10.0,West,13.8,26.5,N/A,,Scattered Clouds,270,2012-10-06 18:54:00
3:54 PM,55.9,35.1,45,29.97,10.0,NW,12.7,-,N/A,,Partly Cloudy,310,2012-10-06 19:54:00
4:54 PM,55.0,34.0,45,29.97,10.0,West,9.2,-,N/A,,Clear,280,2012-10-06 20:54:00
5:54 PM,52.0,32.0,47,29.99,10.0,West,10.4,-,N/A,,Scattered Clouds,280,2012-10-06 21:54:00
7:54 PM,48.0,32.0,54,30.04,10.0,WNW,6.9,-,N/A,,Clear,290,2012-10-06 23:54:00
8:54 PM,46.0,33.1,61,30.07,10.0,NW,8.1,-,N/A,,Clear,310,2012-10-07 00:54:00
9:54 PM,43.0,33.1,68,30.08,10.0,NW,8.1,-,N/A,,Partly Cloudy,320,2012-10-07 01:54:00
10:54 PM,39.0,34.0,82,30.10,10.0,Calm,Calm,-,N/A,,Clear,0,2012-10-07 02:54:00
11:54 PM,37.0,34.0,89,30.11,10.0,Calm,Calm,-,N/A,,Clear,0,2012-10-07 03:54:00